Time,TemperatureF,DewpointF,PressureIn,WindDirection,WindDirectionDegrees,WindSpeedMPH,WindSpeedGustMPH,Humidity,HourlyPrecipIn,Conditions,Clouds,dailyrainin,SoftwareType,DateUTC
2013-04-25 00:00:00,57.5,45.8,29.85,SW,221,4.0,4.0,65,0.00,,,0.01,Wunderground v.1.15,2013-04-25 04:00:00,
2013-04-25 00:05:00,57.4,46.1,29.86,WSW,241,4.0,7.0,66,0.00,,,0.00,Wunderground v.1.15,2013-04-25 04:05:00,
2013-04-25 00:10:00,57.5,45.8,29.86,SW,229,7.0,7.0,65,0.00,,,0.00,Wunderground v.1.15,2013-04-25 04:10:00,
2013-04-25 00:15:00,57.4,45.7,29.86,WSW,241,8.0,9.0,65,0.00,,,0.00,Wunderground v.1.15,2013-04-25 04:15:00,
2013-04-25 00:20:00,57.4,46.1,29.86,WSW,240,8.0,9.0,66,0.00,,,0.00,Wunderground v.1.15,2013-04-25 04:20:00,
2013-04-25 00:25:00,57.3,46.0,29.86,SW,234,8.0,9.0,66,0.00,,,0.00,Wunderground v.1.15,2013-04-25 04:25:00,
2013-04-25 00:30:00,57.1,45.8,29.86,SW,231,8.0,8.0,66,0.00,,,0.00,Wunderground v.1.15,2013-04-25 04:30:00,
2013-04-25 00:35:00,57.2,45.9,29.86,WSW,245,8.0,9.0,66,0.00,,,0.00,Wunderground v.1.15,2013-04-25 04:35:00,
2013-04-25 00:40:00,57.3,46.0,29.86,SW,234,8.0,9.0,66,0.00,,,0.00,Wunderground v.1.15,2013-04-25 04:40:00,
2013-04-25 00:45:00,57.3,45.6,29.86,SW,219,8.0,9.0,65,0.00,,,0.00,Wunderground v.1.15,2013-04-25 04:45:00,
2013-04-25 00:50:00,57.4,45.7,29.86,SW,225,8.0,13.0,65,0.00,,,0.00,Wunderground v.1.15,2013-04-25 04:50:00,
2013-04-25 00:55:00,57.4,45.7,29.85,SSW,213,8.0,13.0,65,0.00,,,0.00,Wunderground v.1.15,2013-04-25 04:55:00,
2013-04-25 01:00:00,57.6,46.3,29.85,WSW,238,8.0,9.0,66,0.00,,,0.00,Wunderground v.1.15,2013-04-25 05:00:00,
2013-04-25 01:05:00,57.3,46.4,29.85,SSW,205,9.0,9.0,67,0.00,,,0.00,Wunderground v.1.15,2013-04-25 05:05:00,
2013-04-25 01:10:00,57.1,46.2,29.84,SSW,208,8.0,9.0,67,0.00,,,0.00,Wunderground v.1.15,2013-04-25 05:10:00,
2013-04-25 01:15:00,57.3,46.4,29.85,SW,234,8.0,9.0,67,0.00,,,0.00,Wunderground v.1.15,2013-04-25 05:15:00,
2013-04-25 01:20:00,57.4,46.5,29.84,WSW,242,9.0,9.0,67,0.00,,,0.00,Wunderground v.1.15,2013-04-25 05:20:00,
2013-04-25 01:25:00,57.4,46.5,29.85,SW,231,8.0,9.0,67,0.00,,,0.00,Wunderground v.1.15,2013-04-25 05:25:00,
2013-04-25 01:30:00,57.3,46.8,29.85,SW,227,7.0,7.0,68,0.00,,,0.00,Wunderground v.1.15,2013-04-25 05:30:00,
2013-04-25 01:35:00,57.4,46.9,29.85,SSW,209,7.0,11.0,68,0.00,,,0.00,Wunderground v.1.15,2013-04-25 05:35:00,
2013-04-25 01:40:00,57.6,47.1,29.85,West,266,8.0,8.0,68,0.00,,,0.00,Wunderground v.1.15,2013-04-25 05:40:00,
2013-04-25 01:45:00,57.5,47.0,29.85,SSW,206,8.0,8.0,68,0.00,,,0.00,Wunderground v.1.15,2013-04-25 05:45:00,
2013-04-25 01:50:00,57.4,47.3,29.85,WSW,240,7.0,7.0,69,0.00,,,0.00,Wunderground v.1.15,2013-04-25 05:50:00,
2013-04-25 01:55:00,57.3,47.6,29.85,SW,236,7.0,7.0,70,0.00,,,0.00,Wunderground v.1.15,2013-04-25 05:55:00,
2013-04-25 02:00:00,56.8,48.2,29.85,SW,228,7.0,7.0,73,0.00,,,0.00,Wunderground v.1.15,2013-04-25 06:00:00,
2013-04-25 02:05:00,56.3,48.1,29.84,SW,215,5.0,7.0,74,0.00,,,0.00,Wunderground v.1.15,2013-04-25 06:05:00,
2013-04-25 02:10:00,56.3,48.1,29.85,SW,232,7.0,10.0,74,0.00,,,0.00,Wunderground v.1.15,2013-04-25 06:10:00,
2013-04-25 02:15:00,56.3,48.1,29.84,SW,226,10.0,10.0,74,0.00,,,0.00,Wunderground v.1.15,2013-04-25 06:15:00,
2013-04-25 02:20:00,56.2,48.4,29.85,SSW,209,8.0,13.0,75,0.00,,,0.00,Wunderground v.1.15,2013-04-25 06:20:00,
2013-04-25 02:25:00,56.2,48.4,29.85,WSW,240,8.0,13.0,75,0.00,,,0.00,Wunderground v.1.15,2013-04-25 06:25:00,
2013-04-25 02:30:00,56.3,48.5,29.85,West,271,9.0,10.0,75,0.00,,,0.00,Wunderground v.1.15,2013-04-25 06:30:00,
2013-04-25 02:40:00,56.9,49.1,29.86,SSW,198,11.0,12.0,75,0.00,,,0.00,Wunderground v.1.15,2013-04-25 06:40:00,
2013-04-25 02:45:00,57.0,49.2,29.87,SSW,210,12.0,12.0,75,0.00,,,0.00,Wunderground v.1.15,2013-04-25 06:45:00,
2013-04-25 02:50:00,57.1,48.9,29.87,WSW,248,12.0,12.0,74,0.00,,,0.00,Wunderground v.1.15,2013-04-25 06:50:00,
2013-04-25 02:55:00,57.1,49.2,29.88,SW,236,12.0,13.0,75,0.00,,,0.00,Wunderground v.1.15,2013-04-25 06:55:00,
2013-04-25 03:00:00,57.1,48.9,29.87,SSW,209,12.0,12.0,74,0.00,,,0.00,Wunderground v.1.15,2013-04-25 07:00:00,
2013-04-25 03:10:00,56.8,49.3,29.87,SW,229,11.0,11.0,76,0.00,,,0.01,Wunderground v.1.15,2013-04-25 07:10:00,
2013-04-25 03:15:00,56.7,49.2,29.87,SSW,213,11.0,11.0,76,0.00,,,0.01,Wunderground v.1.15,2013-04-25 07:15:00,
2013-04-25 03:20:00,56.6,49.1,29.87,SSW,207,10.0,14.0,76,0.00,,,0.01,Wunderground v.1.15,2013-04-25 07:20:00,
2013-04-25 03:25:00,56.5,49.4,29.87,WSW,244,9.0,14.0,77,0.00,,,0.01,Wunderground v.1.15,2013-04-25 07:25:00,
2013-04-25 03:30:00,56.4,49.3,29.87,SW,236,8.0,8.0,77,0.00,,,0.01,Wunderground v.1.15,2013-04-25 07:30:00,
2013-04-25 03:35:00,56.3,49.2,29.87,WSW,238,8.0,9.0,77,0.00,,,0.01,Wunderground v.1.15,2013-04-25 07:35:00,
2013-04-25 03:45:00,56.1,49.0,29.86,WSW,237,8.0,12.0,77,0.00,,,0.01,Wunderground v.1.15,2013-04-25 07:45:00,
2013-04-25 03:50:00,56.0,49.2,29.87,SW,231,8.0,8.0,78,0.00,,,0.01,Wunderground v.1.15,2013-04-25 07:50:00,
2013-04-25 03:55:00,56.0,49.2,29.87,SSW,209,9.0,15.0,78,0.00,,,0.01,Wunderground v.1.15,2013-04-25 07:55:00,
2013-04-25 04:01:00,55.9,49.1,29.87,West,259,9.0,9.0,78,0.00,,,0.01,Wunderground v.1.15,2013-04-25 08:01:00,
2013-04-25 04:05:00,55.7,48.9,29.87,WSW,248,9.0,9.0,78,0.00,,,0.01,Wunderground v.1.15,2013-04-25 08:05:00,
2013-04-25 04:10:00,55.9,48.8,29.87,SW,233,9.0,9.0,77,0.00,,,0.01,Wunderground v.1.15,2013-04-25 08:10:00,
2013-04-25 04:15:00,55.8,48.7,29.87,WSW,248,10.0,16.0,77,0.00,,,0.01,Wunderground v.1.15,2013-04-25 08:15:00,
2013-04-25 04:20:00,55.9,48.4,29.88,West,267,11.0,14.0,76,0.00,,,0.01,Wunderground v.1.15,2013-04-25 08:20:00,
2013-04-25 04:25:00,55.8,48.3,29.88,SW,229,11.0,15.0,76,0.00,,,0.01,Wunderground v.1.15,2013-04-25 08:25:00,
2013-04-25 04:30:00,55.6,48.5,29.89,WSW,244,10.0,11.0,77,0.00,,,0.01,Wunderground v.1.15,2013-04-25 08:30:00,
2013-04-25 04:35:00,55.5,48.4,29.90,WSW,256,10.0,12.0,77,0.00,,,0.01,Wunderground v.1.15,2013-04-25 08:35:00,
2013-04-25 04:40:00,55.3,47.9,29.90,SW,233,9.0,9.0,76,0.00,,,0.01,Wunderground v.1.15,2013-04-25 08:40:00,
2013-04-25 04:45:00,55.5,46.2,29.91,West,278,10.0,10.0,71,0.00,,,0.01,Wunderground v.1.15,2013-04-25 08:45:00,
2013-04-25 04:50:00,55.6,46.0,29.91,WSW,238,11.0,11.0,70,0.00,,,0.01,Wunderground v.1.15,2013-04-25 08:50:00,
2013-04-25 04:55:00,55.5,45.5,29.91,West,275,11.0,16.0,69,0.00,,,0.01,Wunderground v.1.15,2013-04-25 08:55:00,
2013-04-25 05:05:00,55.1,45.1,29.92,WNW,290,13.0,13.0,69,0.00,,,0.01,Wunderground v.1.15,2013-04-25 09:05:00,
2013-04-25 05:10:00,54.8,45.2,29.92,SW,230,12.0,13.0,70,0.00,,,0.01,Wunderground v.1.15,2013-04-25 09:10:00,
2013-04-25 05:15:00,54.4,44.8,29.92,West,271,11.0,11.0,70,0.00,,,0.01,Wunderground v.1.15,2013-04-25 09:15:00,
2013-04-25 05:20:00,54.1,43.4,29.92,WSW,240,13.0,15.0,67,0.00,,,0.01,Wunderground v.1.15,2013-04-25 09:20:00,
2013-04-25 05:25:00,53.7,41.0,29.93,WSW,249,16.0,22.0,62,0.00,,,0.01,Wunderground v.1.15,2013-04-25 09:25:00,
2013-04-25 05:30:00,53.3,40.6,29.93,West,270,16.0,22.0,62,0.00,,,0.01,Wunderground v.1.15,2013-04-25 09:30:00,
2013-04-25 05:35:00,52.7,39.6,29.93,WSW,250,15.0,20.0,61,0.00,,,0.01,Wunderground v.1.15,2013-04-25 09:35:00,
2013-04-25 05:40:00,51.9,38.0,29.93,WSW,246,14.0,20.0,59,0.00,,,0.01,Wunderground v.1.15,2013-04-25 09:40:00,
2013-04-25 05:45:00,51.3,37.0,29.93,NW,307,14.0,16.0,58,0.00,,,0.01,Wunderground v.1.15,2013-04-25 09:45:00,
2013-04-25 05:50:00,50.6,36.4,29.94,WSW,246,13.0,16.0,58,0.00,,,0.01,Wunderground v.1.15,2013-04-25 09:50:00,
2013-04-25 05:55:00,50.0,35.8,29.95,WSW,246,14.0,17.0,58,0.00,,,0.01,Wunderground v.1.15,2013-04-25 09:55:00,
2013-04-25 06:01:00,49.6,35.8,29.94,WSW,238,14.0,27.0,59,0.00,,,0.01,Wunderground v.1.15,2013-04-25 10:01:00,
2013-04-25 06:05:00,49.0,35.3,29.95,WSW,252,13.0,27.0,59,0.00,,,0.01,Wunderground v.1.15,2013-04-25 10:05:00,
2013-04-25 06:10:00,48.5,35.2,29.97,WSW,257,12.0,27.0,60,0.00,,,0.01,Wunderground v.1.15,2013-04-25 10:10:00,
2013-04-25 06:15:00,48.1,34.4,29.97,West,259,12.0,19.0,59,0.00,,,0.01,Wunderground v.1.15,2013-04-25 10:15:00,
2013-04-25 06:20:00,47.9,34.3,29.98,WSW,239,13.0,19.0,59,0.00,,,0.01,Wunderground v.1.15,2013-04-25 10:20:00,
2013-04-25 06:25:00,47.7,34.1,29.99,WSW,251,11.0,13.0,59,0.00,,,0.01,Wunderground v.1.15,2013-04-25 10:25:00,
2013-04-25 06:30:00,47.7,34.5,29.99,West,268,9.0,13.0,60,0.00,,,0.01,Wunderground v.1.15,2013-04-25 10:30:00,
2013-04-25 06:35:00,47.6,34.4,29.99,SW,236,8.0,8.0,60,0.00,,,0.01,Wunderground v.1.15,2013-04-25 10:35:00,
2013-04-25 06:40:00,47.6,34.4,30.00,WNW,296,8.0,8.0,60,0.00,,,0.01,Wunderground v.1.15,2013-04-25 10:40:00,
2013-04-25 06:45:00,47.7,34.5,30.01,West,265,6.0,6.0,60,0.00,,,0.01,Wunderground v.1.15,2013-04-25 10:45:00,
2013-04-25 06:50:00,48.1,33.1,30.01,NNW,344,6.0,6.0,56,0.00,,,0.01,Wunderground v.1.15,2013-04-25 10:50:00,
2013-04-25 06:55:00,48.5,33.1,30.03,NNW,329,10.0,12.0,55,0.00,,,0.01,Wunderground v.1.15,2013-04-25 10:55:00,
2013-04-25 07:00:00,48.6,32.7,30.03,NW,319,11.0,13.0,54,0.00,,,0.01,Wunderground v.1.15,2013-04-25 11:00:00,
2013-04-25 07:05:00,48.5,32.6,30.03,WNW,295,11.0,13.0,54,0.00,,,0.01,Wunderground v.1.15,2013-04-25 11:05:00,
2013-04-25 07:10:00,48.6,32.7,30.03,West,281,10.0,10.0,54,0.00,,,0.01,Wunderground v.1.15,2013-04-25 11:10:00,
2013-04-25 07:15:00,48.4,32.0,30.03,NW,309,11.0,11.0,53,0.00,,,0.01,Wunderground v.1.15,2013-04-25 11:15:00,
2013-04-25 07:20:00,48.3,31.5,30.03,NW,313,12.0,13.0,52,0.00,,,0.01,Wunderground v.1.15,2013-04-25 11:20:00,
2013-04-25 07:25:00,48.1,31.8,30.04,WNW,297,11.0,13.0,53,0.00,,,0.01,Wunderground v.1.15,2013-04-25 11:25:00,
2013-04-25 07:30:00,47.8,31.9,30.03,WNW,285,13.0,24.0,54,0.00,,,0.01,Wunderground v.1.15,2013-04-25 11:30:00,
2013-04-25 07:35:00,47.7,31.9,30.04,WNW,286,12.0,24.0,54,0.00,,,0.01,Wunderground v.1.15,2013-04-25 11:35:00,
2013-04-25 07:40:00,47.8,32.4,30.04,WSW,248,10.0,10.0,55,0.00,,,0.01,Wunderground v.1.15,2013-04-25 11:40:00,
2013-04-25 07:45:00,47.9,32.0,30.04,WSW,255,10.0,13.0,54,0.00,,,0.01,Wunderground v.1.15,2013-04-25 11:45:00,
2013-04-25 07:50:00,48.0,31.7,30.04,West,266,12.0,12.0,53,0.00,,,0.01,Wunderground v.1.15,2013-04-25 11:50:00,
2013-04-25 07:55:00,48.3,32.4,30.04,NW,306,11.0,12.0,54,0.00,,,0.01,Wunderground v.1.15,2013-04-25 11:55:00,
2013-04-25 08:05:00,48.4,32.0,30.05,West,281,11.0,11.0,53,0.00,,,0.01,Wunderground v.1.15,2013-04-25 12:05:00,
2013-04-25 08:10:00,48.6,32.2,30.06,WNW,286,11.0,11.0,53,0.00,,,0.01,Wunderground v.1.15,2013-04-25 12:10:00,
2013-04-25 08:15:00,48.9,32.5,30.06,WNW,294,9.0,14.0,53,0.00,,,0.01,Wunderground v.1.15,2013-04-25 12:15:00,
2013-04-25 08:20:00,49.0,32.1,30.06,WSW,257,9.0,14.0,52,0.00,,,0.01,Wunderground v.1.15,2013-04-25 12:20:00,
2013-04-25 08:25:00,49.0,32.1,30.07,NW,313,9.0,9.0,52,0.00,,,0.01,Wunderground v.1.15,2013-04-25 12:25:00,
2013-04-25 08:30:00,49.3,31.9,30.07,WSW,257,7.0,9.0,51,0.00,,,0.01,Wunderground v.1.15,2013-04-25 12:30:00,
2013-04-25 08:40:00,49.5,32.1,30.07,North,355,7.0,7.0,51,0.00,,,0.01,Wunderground v.1.15,2013-04-25 12:40:00,
2013-04-25 08:45:00,49.4,32.0,30.08,West,267,7.0,7.0,51,0.00,,,0.01,Wunderground v.1.15,2013-04-25 12:45:00,
2013-04-25 08:50:00,49.4,32.0,30.08,NNW,329,7.0,7.0,51,0.00,,,0.01,Wunderground v.1.15,2013-04-25 12:50:00,
2013-04-25 08:55:00,49.4,32.5,30.08,North,5,7.0,7.0,52,0.00,,,0.01,Wunderground v.1.15,2013-04-25 12:55:00,
2013-04-25 09:05:00,50.1,30.6,30.08,North,355,7.0,11.0,47,0.00,,,0.01,Wunderground v.1.15,2013-04-25 13:05:00,
2013-04-25 09:10:00,50.3,31.8,30.09,NW,306,8.0,8.0,49,0.00,,,0.01,Wunderground v.1.15,2013-04-25 13:10:00,
2013-04-25 09:15:00,50.5,31.0,30.09,NNW,338,7.0,16.0,47,0.00,,,0.01,Wunderground v.1.15,2013-04-25 13:15:00,
2013-04-25 09:20:00,50.5,31.0,30.10,WNW,291,9.0,10.0,47,0.00,,,0.01,Wunderground v.1.15,2013-04-25 13:20:00,
2013-04-25 09:25:00,50.6,30.0,30.10,NNW,341,8.0,10.0,45,0.00,,,0.01,Wunderground v.1.15,2013-04-25 13:25:00,
2013-04-25 09:30:00,50.6,31.1,30.10,NNW,337,8.0,8.0,47,0.00,,,0.01,Wunderground v.1.15,2013-04-25 13:30:00,
2013-04-25 09:35:00,50.5,29.4,30.10,North,5,8.0,15.0,44,0.00,,,0.01,Wunderground v.1.15,2013-04-25 13:35:00,
2013-04-25 09:40:00,50.0,28.9,30.11,NNW,327,10.0,10.0,44,0.00,,,0.01,Wunderground v.1.15,2013-04-25 13:40:00,
2013-04-25 09:45:00,50.1,29.0,30.11,NW,309,10.0,10.0,44,0.00,,,0.01,Wunderground v.1.15,2013-04-25 13:45:00,
2013-04-25 09:50:00,50.3,28.6,30.12,NE,42,8.0,8.0,43,0.00,,,0.01,Wunderground v.1.15,2013-04-25 13:50:00,
2013-04-25 09:55:00,50.2,29.1,30.12,NNW,348,8.0,8.0,44,0.00,,,0.01,Wunderground v.1.15,2013-04-25 13:55:00,
2013-04-25 10:05:00,50.8,29.6,30.13,North,355,7.0,9.0,44,0.00,,,0.01,Wunderground v.1.15,2013-04-25 14:05:00,
2013-04-25 10:15:00,50.7,29.6,30.13,NNE,28,9.0,10.0,44,0.00,,,0.01,Wunderground v.1.15,2013-04-25 14:15:00,
2013-04-25 10:20:00,51.2,30.0,30.13,NW,306,9.0,9.0,44,0.00,,,0.01,Wunderground v.1.15,2013-04-25 14:20:00,
2013-04-25 10:25:00,51.0,29.8,30.13,NNE,24,8.0,9.0,44,0.00,,,0.01,Wunderground v.1.15,2013-04-25 14:25:00,
2013-04-25 10:30:00,50.5,28.8,30.13,NE,43,9.0,10.0,43,0.00,,,0.01,Wunderground v.1.15,2013-04-25 14:30:00,
2013-04-25 10:35:00,51.0,29.8,30.13,North,360,10.0,10.0,44,0.00,,,0.01,Wunderground v.1.15,2013-04-25 14:35:00,
2013-04-25 10:40:00,50.8,29.6,30.14,North,355,11.0,12.0,44,0.00,,,0.01,Wunderground v.1.15,2013-04-25 14:40:00,
2013-04-25 10:45:00,50.3,29.2,30.14,North,360,11.0,15.0,44,0.00,,,0.01,Wunderground v.1.15,2013-04-25 14:45:00,
2013-04-25 10:50:00,49.9,28.8,30.14,NE,38,11.0,14.0,44,0.00,,,0.01,Wunderground v.1.15,2013-04-25 14:50:00,
2013-04-25 10:55:00,49.8,29.3,30.14,North,350,12.0,14.0,45,0.00,,,0.01,Wunderground v.1.15,2013-04-25 14:55:00,
2013-04-25 11:00:00,50.3,29.2,30.14,North,360,11.0,11.0,44,0.00,,,0.01,Wunderground v.1.15,2013-04-25 15:00:00,
2013-04-25 11:05:00,50.6,28.9,30.15,North,355,10.0,11.0,43,0.00,,,0.01,Wunderground v.1.15,2013-04-25 15:05:00,
2013-04-25 11:10:00,50.6,29.5,30.16,North,5,10.0,12.0,44,0.00,,,0.01,Wunderground v.1.15,2013-04-25 15:10:00,
2013-04-25 11:15:00,50.6,28.9,30.15,North,9,10.0,12.0,43,0.00,,,0.01,Wunderground v.1.15,2013-04-25 15:15:00,
2013-04-25 11:20:00,50.8,29.1,30.15,NNE,22,10.0,10.0,43,0.00,,,0.01,Wunderground v.1.15,2013-04-25 15:20:00,
2013-04-25 11:25:00,51.0,29.3,30.15,NNW,339,10.0,11.0,43,0.00,,,0.01,Wunderground v.1.15,2013-04-25 15:25:00,
2013-04-25 11:30:00,50.7,29.0,30.16,NW,306,9.0,9.0,43,0.00,,,0.01,Wunderground v.1.15,2013-04-25 15:30:00,
2013-04-25 11:35:00,51.1,29.4,30.16,NE,34,9.0,9.0,43,0.00,,,0.01,Wunderground v.1.15,2013-04-25 15:35:00,
2013-04-25 11:40:00,51.1,29.4,30.16,ENE,58,8.0,10.0,43,0.00,,,0.01,Wunderground v.1.15,2013-04-25 15:40:00,
2013-04-25 11:45:00,50.9,28.6,30.16,NE,55,10.0,13.0,42,0.00,,,0.01,Wunderground v.1.15,2013-04-25 15:45:00,
2013-04-25 11:50:00,51.1,29.4,30.16,NW,324,10.0,10.0,43,0.00,,,0.01,Wunderground v.1.15,2013-04-25 15:50:00,
2013-04-25 11:55:00,51.2,28.9,30.16,NE,42,9.0,10.0,42,0.00,,,0.01,Wunderground v.1.15,2013-04-25 15:55:00,
2013-04-25 12:00:00,51.2,28.9,30.16,NNE,24,9.0,9.0,42,0.00,,,0.01,Wunderground v.1.15,2013-04-25 16:00:00,
2013-04-25 12:10:00,52.3,29.3,30.17,NE,53,8.0,8.0,41,0.00,,,0.01,Wunderground v.1.15,2013-04-25 16:10:00,
2013-04-25 12:15:00,52.4,29.4,30.17,NNE,15,9.0,15.0,41,0.00,,,0.01,Wunderground v.1.15,2013-04-25 16:15:00,
2013-04-25 12:20:00,52.2,28.6,30.17,North,10,10.0,10.0,40,0.00,,,0.01,Wunderground v.1.15,2013-04-25 16:20:00,
2013-04-25 12:25:00,51.9,28.3,30.17,NNE,22,11.0,11.0,40,0.00,,,0.01,Wunderground v.1.15,2013-04-25 16:25:00,
2013-04-25 12:30:00,51.7,28.1,30.18,ENE,68,10.0,10.0,40,0.00,,,0.01,Wunderground v.1.15,2013-04-25 16:30:00,
2013-04-25 12:35:00,52.3,28.7,30.18,NE,55,11.0,14.0,40,0.00,,,0.01,Wunderground v.1.15,2013-04-25 16:35:00,
2013-04-25 12:40:00,51.8,27.6,30.18,NNE,19,11.0,11.0,39,0.00,,,0.01,Wunderground v.1.15,2013-04-25 16:40:00,
2013-04-25 12:45:00,51.7,28.7,30.18,NNE,16,12.0,12.0,41,0.00,,,0.01,Wunderground v.1.15,2013-04-25 16:45:00,
2013-04-25 12:50:00,52.7,29.0,30.18,NNE,30,10.0,10.0,40,0.00,,,0.01,Wunderground v.1.15,2013-04-25 16:50:00,
2013-04-25 12:55:00,52.8,28.5,30.18,NE,36,8.0,12.0,39,0.00,,,0.01,Wunderground v.1.15,2013-04-25 16:55:00,
2013-04-25 13:00:00,52.3,28.7,30.18,NE,46,10.0,10.0,40,0.00,,,0.01,Wunderground v.1.15,2013-04-25 17:00:00,
2013-04-25 13:10:00,52.8,28.5,30.18,North,350,9.0,9.0,39,0.00,,,0.01,Wunderground v.1.15,2013-04-25 17:10:00,
2013-04-25 13:15:00,53.0,27.4,30.19,NW,326,9.0,9.0,37,0.00,,,0.01,Wunderground v.1.15,2013-04-25 17:15:00,
2013-04-25 13:20:00,52.7,27.8,30.19,North,360,9.0,9.0,38,0.00,,,0.01,Wunderground v.1.15,2013-04-25 17:20:00,
2013-04-25 13:25:00,52.7,28.4,30.19,NNE,29,9.0,13.0,39,0.00,,,0.01,Wunderground v.1.15,2013-04-25 17:25:00,
2013-04-25 13:30:00,52.8,27.9,30.19,NNE,21,7.0,7.0,38,0.00,,,0.01,Wunderground v.1.15,2013-04-25 17:30:00,
2013-04-25 13:35:00,53.4,27.8,30.19,NNW,327,7.0,7.0,37,0.00,,,0.01,Wunderground v.1.15,2013-04-25 17:35:00,
2013-04-25 13:40:00,53.0,28.0,30.19,NNE,12,9.0,11.0,38,0.00,,,0.01,Wunderground v.1.15,2013-04-25 17:40:00,
2013-04-25 13:45:00,53.4,27.8,30.19,ESE,109,9.0,11.0,37,0.00,,,0.01,Wunderground v.1.15,2013-04-25 17:45:00,
2013-04-25 13:50:00,53.4,28.4,30.19,NNW,339,8.0,11.0,38,0.00,,,0.01,Wunderground v.1.15,2013-04-25 17:50:00,
2013-04-25 13:55:00,53.7,28.7,30.19,NNE,15,8.0,11.0,38,0.00,,,0.01,Wunderground v.1.15,2013-04-25 17:55:00,
2013-04-25 14:05:00,53.9,28.8,30.19,NNE,32,6.0,6.0,38,0.00,,,0.01,Wunderground v.1.15,2013-04-25 18:05:00,
2013-04-25 14:10:00,54.7,29.6,30.19,NNE,17,6.0,8.0,38,0.00,,,0.01,Wunderground v.1.15,2013-04-25 18:10:00,
2013-04-25 14:15:00,54.2,27.1,30.19,East,98,8.0,8.0,35,0.00,,,0.01,Wunderground v.1.15,2013-04-25 18:15:00,
2013-04-25 14:20:00,54.2,27.8,30.19,NE,42,8.0,8.0,36,0.00,,,0.01,Wunderground v.1.15,2013-04-25 18:20:00,
2013-04-25 14:25:00,53.9,27.5,30.20,North,5,7.0,10.0,36,0.00,,,0.01,Wunderground v.1.15,2013-04-25 18:25:00,
2013-04-25 14:30:00,53.8,28.1,30.20,NE,47,7.0,10.0,37,0.00,,,0.01,Wunderground v.1.15,2013-04-25 18:30:00,
2013-04-25 14:35:00,54.1,28.4,30.20,NE,36,5.0,5.0,37,0.00,,,0.01,Wunderground v.1.15,2013-04-25 18:35:00,
2013-04-25 14:40:00,55.1,27.9,30.20,North,349,5.0,5.0,35,0.00,,,0.01,Wunderground v.1.15,2013-04-25 18:40:00,
2013-04-25 14:45:00,54.7,27.6,30.20,NE,40,7.0,7.0,35,0.00,,,0.01,Wunderground v.1.15,2013-04-25 18:45:00,
2013-04-25 14:50:00,54.4,27.3,30.20,NE,55,7.0,7.0,35,0.00,,,0.01,Wunderground v.1.15,2013-04-25 18:50:00,
2013-04-25 14:55:00,54.8,27.6,30.20,NE,34,6.0,6.0,35,0.00,,,0.01,Wunderground v.1.15,2013-04-25 18:55:00,
2013-04-25 15:00:00,54.6,27.5,30.19,East,92,7.0,7.0,35,0.00,,,0.01,Wunderground v.1.15,2013-04-25 19:00:00,
2013-04-25 15:05:00,54.6,27.5,30.19,NNE,21,7.0,13.0,35,0.00,,,0.01,Wunderground v.1.15,2013-04-25 19:05:00,
2013-04-25 15:15:00,54.5,26.0,30.20,North,9,8.0,8.0,33,0.00,,,0.01,Wunderground v.1.15,2013-04-25 19:15:00,
2013-04-25 15:20:00,54.4,26.6,30.19,ENE,60,7.0,7.0,34,0.00,,,0.01,Wunderground v.1.15,2013-04-25 19:20:00,
2013-04-25 15:25:00,54.8,27.6,30.19,NE,46,5.0,10.0,35,0.00,,,0.01,Wunderground v.1.15,2013-04-25 19:25:00,
2013-04-25 15:30:00,55.4,27.5,30.19,ESE,103,5.0,5.0,34,0.00,,,0.01,Wunderground v.1.15,2013-04-25 19:30:00,
2013-04-25 15:35:00,55.4,26.7,30.19,NE,56,7.0,10.0,33,0.00,,,0.01,Wunderground v.1.15,2013-04-25 19:35:00,
2013-04-25 15:40:00,54.7,26.1,30.20,NE,38,9.0,11.0,33,0.00,,,0.01,Wunderground v.1.15,2013-04-25 19:40:00,
2013-04-25 15:50:00,54.3,26.5,30.20,ENE,59,8.0,8.0,34,0.00,,,0.01,Wunderground v.1.15,2013-04-25 19:50:00,
2013-04-25 15:55:00,54.8,27.6,30.20,NNE,18,8.0,8.0,35,0.00,,,0.01,Wunderground v.1.15,2013-04-25 19:55:00,
2013-04-25 16:00:00,55.0,26.4,30.20,East,80,6.0,6.0,33,0.00,,,0.01,Wunderground v.1.15,2013-04-25 20:00:00,
2013-04-25 16:05:00,54.9,26.3,30.20,NE,36,5.0,7.0,33,0.00,,,0.01,Wunderground v.1.15,2013-04-25 20:05:00,
2013-04-25 16:10:00,54.4,25.9,30.20,NNE,32,6.0,10.0,33,0.00,,,0.01,Wunderground v.1.15,2013-04-25 20:10:00,
2013-04-25 16:15:00,54.3,26.5,30.21,NE,37,7.0,10.0,34,0.00,,,0.01,Wunderground v.1.15,2013-04-25 20:15:00,
2013-04-25 16:20:00,54.6,26.8,30.21,ENE,57,5.0,5.0,34,0.00,,,0.01,Wunderground v.1.15,2013-04-25 20:20:00,
2013-04-25 16:25:00,55.4,26.0,30.21,North,355,4.0,7.0,32,0.00,,,0.01,Wunderground v.1.15,2013-04-25 20:25:00,
2013-04-25 16:30:00,54.8,26.2,30.21,NE,36,6.0,10.0,33,0.00,,,0.01,Wunderground v.1.15,2013-04-25 20:30:00,
2013-04-25 16:35:00,54.7,26.1,30.21,ENE,57,7.0,10.0,33,0.00,,,0.01,Wunderground v.1.15,2013-04-25 20:35:00,
2013-04-25 16:40:00,54.8,26.9,30.21,NE,37,6.0,6.0,34,0.00,,,0.01,Wunderground v.1.15,2013-04-25 20:40:00,
2013-04-25 16:45:00,55.4,26.7,30.21,NW,325,5.0,10.0,33,0.00,,,0.01,Wunderground v.1.15,2013-04-25 20:45:00,
2013-04-25 16:50:00,55.5,26.8,30.22,NNE,23,6.0,6.0,33,0.00,,,0.01,Wunderground v.1.15,2013-04-25 20:50:00,
2013-04-25 16:55:00,55.2,25.8,30.22,NE,42,6.0,10.0,32,0.00,,,0.01,Wunderground v.1.15,2013-04-25 20:55:00,
2013-04-25 17:01:00,54.5,26.0,30.22,NNE,18,7.0,8.0,33,0.00,,,0.01,Wunderground v.1.15,2013-04-25 21:01:00,
2013-04-25 17:10:00,54.8,26.2,30.23,NE,38,6.0,8.0,33,0.00,,,0.01,Wunderground v.1.15,2013-04-25 21:10:00,
2013-04-25 17:15:00,55.3,26.7,30.23,NE,37,6.0,8.0,33,0.00,,,0.01,Wunderground v.1.15,2013-04-25 21:15:00,
2013-04-25 17:20:00,55.1,26.5,30.23,ENE,63,7.0,8.0,33,0.00,,,0.01,Wunderground v.1.15,2013-04-25 21:20:00,
2013-04-25 17:30:00,54.9,25.6,30.24,NE,50,8.0,8.0,32,0.00,,,0.01,Wunderground v.1.15,2013-04-25 21:30:00,
2013-04-25 17:35:00,55.1,26.5,30.24,NE,51,7.0,7.0,33,0.00,,,0.01,Wunderground v.1.15,2013-04-25 21:35:00,
2013-04-25 17:40:00,55.3,25.9,30.24,NE,46,6.0,7.0,32,0.00,,,0.01,Wunderground v.1.15,2013-04-25 21:40:00,
2013-04-25 17:45:00,55.3,25.1,30.25,North,360,6.0,6.0,31,0.00,,,0.01,Wunderground v.1.15,2013-04-25 21:45:00,
2013-04-25 17:50:00,55.3,25.9,30.25,NE,35,6.0,7.0,32,0.00,,,0.01,Wunderground v.1.15,2013-04-25 21:50:00,
2013-04-25 17:55:00,55.3,25.9,30.25,NE,50,5.0,5.0,32,0.00,,,0.01,Wunderground v.1.15,2013-04-25 21:55:00,
2013-04-25 18:05:00,54.8,25.5,30.25,NNW,338,7.0,7.0,32,0.00,,,0.01,Wunderground v.1.15,2013-04-25 22:05:00,
2013-04-25 18:10:00,55.1,25.7,30.25,NNE,24,6.0,7.0,32,0.00,,,0.01,Wunderground v.1.15,2013-04-25 22:10:00,
2013-04-25 18:15:00,54.7,25.4,30.26,NNE,16,6.0,7.0,32,0.00,,,0.01,Wunderground v.1.15,2013-04-25 22:15:00,
2013-04-25 18:20:00,54.4,24.4,30.26,NE,46,7.0,7.0,31,0.00,,,0.01,Wunderground v.1.15,2013-04-25 22:20:00,
2013-04-25 18:25:00,54.1,25.6,30.26,NE,36,6.0,6.0,33,0.00,,,0.01,Wunderground v.1.15,2013-04-25 22:25:00,
2013-04-25 18:30:00,54.0,25.5,30.26,North,5,6.0,6.0,33,0.00,,,0.01,Wunderground v.1.15,2013-04-25 22:30:00,
2013-04-25 18:35:00,54.0,24.8,30.27,NNE,30,5.0,6.0,32,0.00,,,0.01,Wunderground v.1.15,2013-04-25 22:35:00,
2013-04-25 18:40:00,54.1,25.6,30.27,NNW,347,4.0,6.0,33,0.00,,,0.01,Wunderground v.1.15,2013-04-25 22:40:00,
2013-04-25 18:45:00,53.9,24.7,30.27,North,5,5.0,5.0,32,0.00,,,0.01,Wunderground v.1.15,2013-04-25 22:45:00,
2013-04-25 18:50:00,53.7,24.5,30.28,North,5,6.0,6.0,32,0.00,,,0.01,Wunderground v.1.15,2013-04-25 22:50:00,
2013-04-25 18:55:00,53.6,24.4,30.28,NNW,329,5.0,7.0,32,0.00,,,0.01,Wunderground v.1.15,2013-04-25 22:55:00,
2013-04-25 19:05:00,53.5,24.3,30.28,WNW,294,4.0,4.0,32,0.00,,,0.01,Wunderground v.1.15,2013-04-25 23:05:00,
2013-04-25 19:10:00,53.2,24.8,30.28,NW,309,4.0,4.0,33,0.00,,,0.01,Wunderground v.1.15,2013-04-25 23:10:00,
2013-04-25 19:15:00,53.0,24.6,30.29,NNW,328,4.0,4.0,33,0.00,,,0.01,Wunderground v.1.15,2013-04-25 23:15:00,
2013-04-25 19:20:00,52.8,25.2,30.29,NNW,344,3.0,4.0,34,0.00,,,0.01,Wunderground v.1.15,2013-04-25 23:20:00,
2013-04-25 19:25:00,52.4,24.8,30.30,WNW,286,3.0,3.0,34,0.00,,,0.01,Wunderground v.1.15,2013-04-25 23:25:00,
2013-04-25 19:30:00,51.7,24.2,30.30,NW,317,3.0,3.0,34,0.00,,,0.01,Wunderground v.1.15,2013-04-25 23:30:00,
2013-04-25 19:35:00,51.3,24.5,30.31,NW,317,3.0,3.0,35,0.00,,,0.01,Wunderground v.1.15,2013-04-25 23:35:00,
2013-04-25 19:40:00,51.0,24.3,30.31,WSW,244,3.0,3.0,35,0.00,,,0.01,Wunderground v.1.15,2013-04-25 23:40:00,
2013-04-25 19:45:00,50.6,24.6,30.31,NW,314,3.0,3.0,36,0.00,,,0.01,Wunderground v.1.15,2013-04-25 23:45:00,
2013-04-25 19:50:00,50.4,24.4,30.31,North,351,2.0,3.0,36,0.00,,,0.01,Wunderground v.1.15,2013-04-25 23:50:00,
2013-04-25 19:55:00,50.2,24.9,30.31,NNW,334,2.0,2.0,37,0.00,,,0.01,Wunderground v.1.15,2013-04-25 23:55:00,
2013-04-25 20:05:00,49.7,23.8,30.32,NNW,347,1.0,1.0,36,0.00,,,0.01,Wunderground v.1.15,2013-04-26 00:05:00,
2013-04-25 20:10:00,49.4,24.2,30.33,NNW,346,1.0,2.0,37,0.00,,,0.01,Wunderground v.1.15,2013-04-26 00:10:00,
2013-04-25 20:15:00,49.2,24.6,30.33,WSW,246,1.0,1.0,38,0.00,,,0.01,Wunderground v.1.15,2013-04-26 00:15:00,
2013-04-25 20:20:00,49.1,23.3,30.33,West,267,1.0,2.0,36,0.00,,,0.01,Wunderground v.1.15,2013-04-26 00:20:00,
2013-04-25 20:25:00,49.4,24.2,30.33,West,267,1.0,1.0,37,0.00,,,0.01,Wunderground v.1.15,2013-04-26 00:25:00,
2013-04-25 20:30:00,49.4,23.5,30.33,West,267,0.0,1.0,36,0.00,,,0.01,Wunderground v.1.15,2013-04-26 00:30:00,
2013-04-25 20:35:00,49.2,23.4,30.34,West,267,1.0,2.0,36,0.00,,,0.01,Wunderground v.1.15,2013-04-26 00:35:00,
2013-04-25 20:40:00,49.0,23.2,30.34,North,11,1.0,2.0,36,0.00,,,0.01,Wunderground v.1.15,2013-04-26 00:40:00,
2013-04-25 20:45:00,48.9,23.7,30.34,NNE,13,1.0,1.0,37,0.00,,,0.01,Wunderground v.1.15,2013-04-26 00:45:00,
2013-04-25 20:50:00,48.5,23.4,30.34,NNE,24,1.0,1.0,37,0.00,,,0.01,Wunderground v.1.15,2013-04-26 00:50:00,
2013-04-25 20:55:00,48.2,23.7,30.35,NNE,24,1.0,1.0,38,0.00,,,0.01,Wunderground v.1.15,2013-04-26 00:55:00,
2013-04-25 21:05:00,47.8,23.4,30.35,NNE,24,1.0,1.0,38,0.00,,,0.01,Wunderground v.1.15,2013-04-26 01:05:00,
2013-04-25 21:10:00,47.5,23.1,30.36,NE,43,1.0,1.0,38,0.00,,,0.01,Wunderground v.1.15,2013-04-26 01:10:00,
2013-04-25 21:15:00,47.7,22.7,30.36,ENE,58,1.0,1.0,37,0.00,,,0.01,Wunderground v.1.15,2013-04-26 01:15:00,
2013-04-25 21:20:00,47.9,22.2,30.36,ENE,57,2.0,2.0,36,0.00,,,0.01,Wunderground v.1.15,2013-04-26 01:20:00,
2013-04-25 21:25:00,48.4,22.6,30.36,ENE,57,1.0,2.0,36,0.00,,,0.01,Wunderground v.1.15,2013-04-26 01:25:00,
2013-04-25 21:30:00,48.5,22.7,30.36,ENE,57,1.0,2.0,36,0.00,,,0.01,Wunderground v.1.15,2013-04-26 01:30:00,
2013-04-25 21:35:00,48.3,22.5,30.37,ENE,57,0.0,1.0,36,0.00,,,0.01,Wunderground v.1.15,2013-04-26 01:35:00,
2013-04-25 21:40:00,48.3,23.2,30.37,NE,34,1.0,1.0,37,0.00,,,0.01,Wunderground v.1.15,2013-04-26 01:40:00,
2013-04-25 21:45:00,48.5,22.1,30.37,NNE,19,2.0,2.0,35,0.00,,,0.01,Wunderground v.1.15,2013-04-26 01:45:00,
2013-04-25 21:50:00,48.5,22.1,30.37,North,5,1.0,2.0,35,0.00,,,0.01,Wunderground v.1.15,2013-04-26 01:50:00,
2013-04-25 22:00:00,48.3,22.5,30.37,North,5,1.0,1.0,36,0.00,,,0.01,Wunderground v.1.15,2013-04-26 02:00:00,
2013-04-25 22:05:00,48.0,22.3,30.38,North,5,1.0,1.0,36,0.00,,,0.01,Wunderground v.1.15,2013-04-26 02:05:00,
2013-04-25 22:10:00,47.7,22.0,30.38,NNE,13,1.0,2.0,36,0.00,,,0.01,Wunderground v.1.15,2013-04-26 02:10:00,
2013-04-25 22:15:00,47.4,22.4,30.38,NNE,26,1.0,2.0,37,0.00,,,0.01,Wunderground v.1.15,2013-04-26 02:15:00,
2013-04-25 22:20:00,47.4,22.4,30.38,NNE,28,1.0,1.0,37,0.00,,,0.01,Wunderground v.1.15,2013-04-26 02:20:00,
2013-04-25 22:25:00,47.4,22.4,30.38,NNE,28,1.0,2.0,37,0.00,,,0.01,Wunderground v.1.15,2013-04-26 02:25:00,
2013-04-25 22:35:00,46.9,22.6,30.38,NNE,28,1.0,1.0,38,0.00,,,0.01,Wunderground v.1.15,2013-04-26 02:35:00,
2013-04-25 22:40:00,46.7,22.4,30.38,NNE,28,1.0,1.0,38,0.00,,,0.01,Wunderground v.1.15,2013-04-26 02:40:00,
2013-04-25 22:45:00,46.4,22.8,30.38,NNE,28,0.0,2.0,39,0.00,,,0.01,Wunderground v.1.15,2013-04-26 02:45:00,
2013-04-25 22:50:00,46.1,22.5,30.38,NNE,28,1.0,1.0,39,0.00,,,0.01,Wunderground v.1.15,2013-04-26 02:50:00,
2013-04-25 22:55:00,46.0,22.4,30.39,NNE,28,1.0,1.0,39,0.00,,,0.01,Wunderground v.1.15,2013-04-26 02:55:00,
2013-04-25 23:00:00,45.8,22.8,30.39,NNE,28,0.0,1.0,40,0.00,,,0.01,Wunderground v.1.15,2013-04-26 03:00:00,
2013-04-25 23:05:00,45.6,22.6,30.39,NNE,28,1.0,1.0,40,0.00,,,0.01,Wunderground v.1.15,2013-04-26 03:05:00,
2013-04-25 23:10:00,45.5,22.5,30.39,NNE,28,1.0,1.0,40,0.00,,,0.01,Wunderground v.1.15,2013-04-26 03:10:00,
2013-04-25 23:15:00,45.4,22.5,30.39,NNE,28,1.0,1.0,40,0.00,,,0.01,Wunderground v.1.15,2013-04-26 03:15:00,
2013-04-25 23:20:00,45.3,23.0,30.40,NNE,28,1.0,1.0,41,0.00,,,0.01,Wunderground v.1.15,2013-04-26 03:20:00,
2013-04-25 23:25:00,45.1,22.8,30.40,NNE,28,0.0,1.0,41,0.00,,,0.01,Wunderground v.1.15,2013-04-26 03:25:00,
2013-04-25 23:30:00,44.9,22.6,30.40,SW,228,0.0,1.0,41,0.00,,,0.01,Wunderground v.1.15,2013-04-26 03:30:00,
2013-04-25 23:35:00,44.8,23.1,30.40,East,92,1.0,2.0,42,0.00,,,0.01,Wunderground v.1.15,2013-04-26 03:35:00,
2013-04-25 23:40:00,44.8,23.6,30.41,East,92,1.0,2.0,43,0.00,,,0.01,Wunderground v.1.15,2013-04-26 03:40:00,
2013-04-25 23:45:00,44.6,23.5,30.41,East,93,1.0,2.0,43,0.00,,,0.01,Wunderground v.1.15,2013-04-26 03:45:00,
2013-04-25 23:50:00,44.3,23.2,30.41,East,93,1.0,1.0,43,0.00,,,0.01,Wunderground v.1.15,2013-04-26 03:50:00,
2013-04-25 23:55:00,44.1,23.0,30.41,East,93,1.0,3.0,43,0.00,,,0.01,Wunderground v.1.15,2013-04-26 03:55:00,